Tracking 19192 objects as of 21-Jun-2018
HD Live streaming from Space Station
objects crossing your sky now

FENGYUN 1C DEB

Track FENGYUN 1C DEB now!
10-day predictions


NORAD ID: 31566
Int'l Code: 1999-025BZH
Perigee: 822.5 km
Apogee: 864.7 km
Inclination: 98.9 °
Period: 101.6 minutes
Semi major axis: 7214 km
RCS: 0.0092 m2 (small)
Launch date: May 10, 1999
Source: People's Republic of China (PRC)
Launch site: Taiyaun Space Center, China (TSC)

Note: This is SATELLITE DEBRIS
aabbcc
Your satellite tracking list
Your tracking list is empty




NASA's NSSDC Master Catalog

Two Line Element Set (TLE):
1 31566U 99025BZH 18171.88051966 +.00000646 +00000-0 +34446-3 0  9997
2 31566 098.9438 141.8457 0029206 278.1793 110.3798 14.16727524575588
Source of the keplerian elements: AFSPC